Regional Weather Roundup
Issued by NWS

Home | Current Version | Previous Version | Text Only | Print | Product List | Glossary On
Versions: 1 2 3 4 5 6 7 8 9 10 11 12 13 14 15 16 17 18 19 20 21 22 23 24 25 26 27 28 29 30 31 32 33 34 35 36 37 38 39 40 41 42 43 44 45 46 47 48 49 50
000
ASUS43 KOAX 141310
RWRNE

WEATHER ROUNDUP FOR NEBRASKA
NATIONAL WEATHER SERVICE OMAHA NE
700 AM CST THU DEC 14 2017

NOTES: SATELLITE DATA IS BEING USED TO AUGMENT CLOUD COVER ABOVE
       12000 FEET.
       "FAIR" INDICATES FEW OR NO CLOUDS BELOW 12,000 FEET WITH NO
       SIGNIFICANT WEATHER AND/OR OBSTRUCTIONS TO VISIBILITY.


NEZ001>004-019>022-054>056-141400-
NEBRASKA PANHANDLE

CITY           SKY/WX    TMP DP  RH WIND       PRES   REMARKS
SCOTTSBLUFF    CLOUDY    35  24  64 W13       30.13S WCI  26
ALLIANCE       CLOUDY    32  23  69 W14       30.08F WCI  22
CHADRON        CLOUDY    38  24  57 NW24G33   30.10S WCI  27
GORDON         CLOUDY    34  29  81 NW15G22   30.05S WCI  24
KIMBALL        CLOUDY    30  24  79 NW9       30.13S WCI  22
SIDNEY         PTCLDY    29  21  72 NW12      30.12S WCI  19
$$

NEZ057>060-069>072-079>082-141400-
SOUTHWEST NEBRASKA

CITY           SKY/WX    TMP DP  RH WIND       PRES   REMARKS
NORTH PLATTE   CLOUDY    37  26  64 W9        30.09R WCI  30
IMPERIAL       CLOUDY    36  27  69 NW13      30.13R WCI  27
LEXINGTON      MOCLDY    36  27  68 NW10      30.08R WCI  29
MCCOOK         CLOUDY    38  27  64 W12       30.11S WCI  30
OGALLALA       CLOUDY    37  26  66 NW9       30.11S WCI  30
$$

NEZ005>010-023>029-035>040-094-141400-
NORTH CENTRAL NEBRASKA

CITY           SKY/WX    TMP DP  RH WIND       PRES   REMARKS
VALENTINE      FLURRIES  35  33  92 W10       30.04S WCI  27
AINSWORTH      LGT SNOW  35  33  94 NW14      30.03R WCI  25
BROKEN BOW     CLOUDY    36  31  82 NW12      30.05R WCI  28
O`NEILL        CLOUDY    28  26  89 W6        30.03R WCI  22
ORD            CLOUDY    30  25  81 CALM      30.03S
THEDFORD       FLURRIES  35  33  90 NW10      30.07R WCI  27
$$

NEZ041-046>049-061>064-073>077-083>087-141400-
SOUTH CENTRAL NEBRASKA

CITY           SKY/WX    TMP DP  RH WIND       PRES   REMARKS
GRAND ISLAND   PTCLDY    29  25  85 W7        30.07R WCI  22
AURORA         CLOUDY    29  25  84 W8        30.06R WCI  21
HASTINGS       CLOUDY    30  24  78 W7        30.07R WCI  23
HEBRON         CLOUDY    32  26  79 W3        30.09R
HOLDREGE       CLOUDY    35  25  67 W9        30.07S WCI  27
KEARNEY        PTCLDY    34  24  67 W7        30.07R WCI  28
YORK           CLOUDY    30  27  86 CALM      30.06R
$$

NEZ011>018-030>034-042>045-141400-
NORTHEAST NEBRASKA

CITY           SKY/WX    TMP DP  RH WIND       PRES   REMARKS
NORFOLK        CLOUDY    34  26  72 W9        30.02R WCI  27
ALBION         CLOUDY    29  25  82 CALM      30.04R
BLAIR          CLOUDY    33  29  85 W5        30.03R WCI  28
COLUMBUS       CLOUDY    33  25  72 W7        30.06R WCI  27
FREMONT        CLOUDY    33  25  71 W5        30.05R WCI  29
TEKAMAH        CLOUDY    32  25  75 CALM      30.05R
WAYNE          CLOUDY    34  25  70 W7        30.03R WCI  28
$$

NEZ050>053-065>068-078-088>093-141400-
SOUTHEAST NEBRASKA

CITY           SKY/WX    TMP DP  RH WIND       PRES   REMARKS
LINCOLN        CLOUDY    36  25  64 W6        30.07R WCI  31
OMAHA EPPLEY   CLOUDY    34  26  72 CALM      30.05R
BEATRICE       CLOUDY    35  27  74 W6        30.06R WCI  30
FALLS CITY     CLOUDY    35  26  69 W6        30.06R WCI  30
NEBRASKA CITY  CLOUDY    34  28  80 NW5       30.05R WCI  30
PLATTSMOUTH    CLOUDY    33  29  84 NW5       30.05R WCI  29
$$

NEZ044-045-051>053-067-141400-
OMAHA AREA

CITY           SKY/WX    TMP DP  RH WIND       PRES   REMARKS
OMAHA EPPLEY   CLOUDY    34  26  72 CALM      30.05R
BLAIR          CLOUDY    33  29  85 W5        30.03R WCI  28
FREMONT        CLOUDY    33  25  71 W5        30.05R WCI  29
MILLARD        CLOUDY    36  28  75 NW5       30.06R WCI  32
OFFUTT AFB     CLOUDY    34  27  74 NW5       30.05R WCI  30
PLATTSMOUTH    CLOUDY    33  29  84 NW5       30.05R WCI  29
WAHOO          CLOUDY    34  24  65 NW3       30.06R
$$




USA.gov is the U.S. government's official web portal to all federal, state and local government web resources and services.